• MPC Preparation (Info)

  • MPEC 2016-F35 : 2016 FZ2

    The following Minor Planet Electronic Circular may be linked-to from your own Web pages, but must not otherwise be redistributed electronically.

    A form allowing access to any MPEC is at the bottom of this page.


    Read MPEC 2016-F34 Read MPEC 2016-F36


    M.P.E.C. 2016-F35                                Issued 2016 Mar. 18, 22:01 UT
    
         The Minor Planet Electronic Circulars contain information on unusual
             minor planets and routine data on comets.  They are published
        on behalf of Division F of the International Astronomical Union by the
              Minor Planet Center, Smithsonian Astrophysical Observatory,
                              Cambridge, MA 02138, U.S.A.
    
                 Prepared using the Tamkin Foundation Computer Network
    
                                  MPC@CFA.HARVARD.EDU
                URL https://www.minorplanetcenter.net/    ISSN 1523-6714
    
                                       2016 FZ2
    
    Observations:
         K16F02Z* C2016 03 17.25132 13 21 26.60 +26 37 51.4          19.9 rREF035G45
         K16F02Z  C2016 03 17.25611 13 21 27.74 +26 36 53.2          19.7 rREF035G45
         K16F02Z  C2016 03 17.26099 13 21 28.86 +26 35 54.8          19.6 rREF035G45
         K16F02Z  C2016 03 17.26591 13 21 30.06 +26 34 56.2          20.4 rREF035G45
         K16F02Z  C2016 03 17.26615 13 21 30.09 +26 34 53.1          20.0 rREF035G45
         K16F02Z  C2016 03 17.27079 13 21 31.18 +26 33 57.3          19.4 rREF035G45
         K16F02Z  C2016 03 17.27103 13 21 31.25 +26 33 53.8          19.8 rREF035G45
         K16F02Z KC2016 03 17.90237 13 24 24.78 +24 22 23.8          19.4  uEF035104
         K16F02Z KC2016 03 17.90822 13 24 26.21 +24 21 10.6          19.4  uEF035104
         K16F02Z KC2016 03 17.91423 13 24 27.66 +24 19 54.5          19.2  uEF035104
         K16F02Z  C2016 03 17.94205 13 24 33.83 +24 13 58.2                qEF035246
         K16F02Z  C2016 03 17.94276 13 24 33.88 +24 13 49.7                qEF035246
         K16F02Z  C2016 03 17.94369 13 24 34.07 +24 13 36.8                qEF035246
         K16F02Z  C2016 03 17.94406 13 24 34.15 +24 13 32.9                qEF035246
         K16F02Z  C2016 03 17.94457 13 24 34.33 +24 13 26.8                qEF035246
         K16F02Z  C2016 03 17.94499 13 24 34.36 +24 13 20.4                qEF035246
         K16F02Z  C2016 03 17.94539 13 24 34.48 +24 13 16.3                qEF035246
         K16F02Z KC2016 03 17.95633 13 24 37.77 +24 11 02.1          19.5 RtEF035204
         K16F02Z KC2016 03 17.96480 13 24 39.76 +24 09 15.4                tEF035204
         K16F02Z KC2016 03 17.97334 13 24 41.77 +24 07 27.5                tEF035204
         K16F02Z KC2016 03 17.97682 13 24 42.05 +24 06 44.8          19.5 VtEF035595
         K16F02Z KC2016 03 17.98625 13 24 44.23 +24 04 44.9          19.7 VtEF035595
         K16F02Z KC2016 03 18.01994 13 24 52.55 +23 57 36.9          19.1 RqEF035203
         K16F02Z KC2016 03 18.04204 13 24 57.63 +23 52 54.9          19.4 RqEF035203
         K16F02Z KC2016 03 18.09296 13 25 10.47 +23 42 05.9          19.4 RqEF035958
         K16F02Z KC2016 03 18.10016 13 25 12.10 +23 40 32.8          20.1 RqEF035958
         K16F02Z KC2016 03 18.10731 13 25 13.75 +23 39 00.4          20.3 RqEF035958
         K16F02Z  C2016 03 18.17122313 25 40.06 +23 25 12.6          20.0 VtEF035H01
         K16F02Z  C2016 03 18.17642013 25 41.35 +23 24 07.0          19.4 VtEF035H01
         K16F02Z  C2016 03 18.18357413 25 43.18 +23 22 36.6          19.8 VtEF035H01
         K16F02Z  C2016 03 18.19553913 25 46.18 +23 20 05.3          19.9 VtEF035H01
         K16F02Z  C2016 03 18.31072 13 26 13.65 +22 55 39.9          20.1 RuEF035926
         K16F02Z  C2016 03 18.31572 13 26 14.70 +22 54 35.0          19.6 RuEF035926
         K16F02Z  C2016 03 18.32071 13 26 15.85 +22 53 30.5          19.5 RuEF035926
         K16F02Z  C2016 03 18.34191 13 26 20.55 +22 48 56.6          19.6 RuEF035926
         K16F02Z  C2016 03 18.34690 13 26 21.59 +22 47 52.7          19.8 RuEF035926
         K16F02Z  C2016 03 18.35189 13 26 22.72 +22 46 47.7          19.7 RuEF035926
         K16F02Z KC2016 03 18.88734 13 28 50.72 +20 48 13.9          10.7 RqEF035587
         K16F02Z KC2016 03 18.89479 13 28 52.54 +20 46 36.2                qEF035587
         K16F02Z KC2016 03 18.90224 13 28 54.36 +20 44 56.9                qEF035587
    
    Observer details:
    104 San Marcello Pistoiese.  Observer P. Bacci.  Measurers P. Bacci, L. Tesi,
        G. Fagioli.  0.60-m f/4 reflector + CCD.
    203 GiaGa Observatory.  Observers S. Foglia, G. Galli.  Measurer G. Galli.
        0.28-m f/6.8 Schmidt-Cassegrain + CCD.
    204 Schiaparelli Observatory.  Observer L. Buzzi.  0.60-m f/4.64 reflector
        + CCD.
    246 Klet Observatory-KLENOT.  Observers M. Tichy, J. Ticha, M. Kocer.
        Measurer M. Tichy.  1.06-m KLENOT Telescope + CCD.
    587 Sormano.  Observers M. Calcagno, F. Manca, A. Testa.  Measurer F. Manca.
        0.5-m f/6.8 reflector + CCD.
    595 Farra d'Isonzo.  Observers L. Bittesini, E. Pettarin.  Measurer
        E. Pettarin.  0.61-m f/4.0 reflector + CCD.
    926 Tenagra II Observatory.  Observers M. Schwartz, P. R. Holvorcem.  Measurer
        M. Schwartz.  0.41-m f/3.75 astrograph + CCD.
    958 Observatoire de Dax.  Observer P. Dupouy.  0.51-m f/6 reflector + CCD.
    G45 Space Surveillance Telescope, Atom Site.  Observers M. Blythe, R. Brungard,
        P. Festler, T. McVey, J. Paige, G. Spitz.  Measurers M. Cornell, A. Klein,
        J. Ruprecht, G. Ushomirsky, J. Varey, D. Woods.  3.5-m f/1 reflector + CCD.
    H01 Magdalena Ridge Observatory, Socorro.  Observers W. H. Ryan, E. V. Ryan.
        Measurer W. H. Ryan.  2.4-m f/8.9 reflector + CCD.
    
    Orbital elements:
    2016 FZ2                                                 Earth MOID = 0.0577 AU
    Epoch 2016 Jan. 13.0 TT = JDT 2457400.5                 MPC
    M 337.91975              (2000.0)            P               Q
    n   0.33778698     Peri.  170.14939     -0.99924683     -0.02870199
    a   2.0419297      Node     8.33974     +0.00940047     -0.83198409
    e   0.4846567      Incl.   10.37250     +0.03764839     -0.55405656
    P   2.92           H   24.4           G   0.15           U   7
    Residuals in seconds of arc
    160317 G45  0.0   0.3+    160317 246  0.8+  0.6+    160318 H01  0.3-  0.2+
    160317 G45  0.1+  0.4-    160317 246  0.1-  0.5-    160318 H01  0.1+  0.2+
    160317 G45  0.3-  0.2-    160317 246  0.2+  0.5+    160318 H01  0.3+  0.2+
    160317 G45  0.3+  0.4+    160317 204  0.2-  0.0     160318 926  0.2+  0.7+
    160317 G45  0.1-  0.2+    160317 204  0.3-  0.1+    160318 926  0.7-  0.1+
    160317 G45  0.0   0.2+    160317 204  0.2-  0.0     160318 926  0.1-  0.1-
    160317 G45  0.2+  0.4-    160317 595  0.4-  0.2+    160318 926  0.2+  0.1-
    160317 104  0.3-  0.0     160317 595  0.5-  0.2-    160318 926  0.6-  0.6+
    160317 104  0.2-  0.1-    160318 203  0.1-  0.1-    160318 926  0.1-  0.3+
    160317 104  0.3-  0.9-    160318 203  0.0   0.0     160318 587  0.0   0.3-
    160317 246 (2.2+  0.3+)   160318 958  0.4+  0.4-    160318 587  0.1+  0.4+
    160317 246  0.6+  0.7+    160318 958  0.2+  0.9-    160318 587  0.4+  0.4-
    160317 246  0.1+  0.5-    160318 958  0.5+  1.2-
    160317 246  0.0   0.3+    160318 H01  0.1+  0.2+
    
    Ephemeris:
    2016 FZ2                 a,e,i = 2.04, 0.48, 10                  q = 1.0523
    Date    TT    R. A. (2000) Decl.     Delta      r     Elong.  Phase     V
    2016 02 17    11 07 30.7 +61 11 15   0.1773  1.1093   129.6    43.4    22.5
    ...
    2016 03 03    12 12 02.3 +54 51 05   0.1136  1.0674   129.6    45.7    21.6
    ...
    2016 03 11    12 51 29.2 +43 29 54   0.08452 1.0558   135.9    40.9    20.8
    ...
    2016 03 17    13 20 11.8 +27 29 07   0.06856 1.0524   145.7    32.2    20.1
    2016 03 18    13 24 45.8 +24 02 50   0.06672 1.0523   147.7    30.4    19.9
    2016 03 19    13 29 15.0 +20 24 26   0.06518 1.0523   149.6    28.6    19.8
    ...
    2016 03 25    13 54 03.3 -03 44 44   0.06315 1.0551   155.6    23.0    19.6
    ...
    2016 04 02    14 20 12.8 -30 26 15   0.07879 1.0659   146.2    31.5    20.4
    ...
    2016 04 17    14 47 03.7 -51 25 47   0.1355  1.1066   136.9    38.3    21.8
    
    A. U. Tomatic                (C) Copyright 2016 MPC           M.P.E.C. 2016-F35
    

    Read MPEC 2016-F34 Read MPEC 2016-F36


    MPEC number:

    Enter an MPEC number in one of the following forms:

    • 1997-B01 (the full form)
    • J97B01 (the packed version of the full form)
    • B01 (the abbreviated form)